TURKMENALEM52E/MONACOSAT

Last updated on Thu Oct 16 2025 00:02:48 GMT+0000 (Coordinated Universal Time)

1 40617U 15023A 25288.63852728 .00000000 00000+0 00000+0 0 9993 2 40617 0.0186 201.5135 0002814 11.8694 92.9403 1.00273413 38397
UTC large
Height (km)
Speed (km/s)
/
Latitude / Longitude
Inclination (degrees)
Orbital Period (minutes)
Azimuth
Elevation
Range (km)
Doppler Factor

Next 0 passes for location: London (51.5072 / 0.1276)

Sorry there are no passes over London.